DELTA 1 DEB, 20349

Orbit data source: Space-Track

DELTA 1 DEB, 20349 is space debris in LEO originally from a launch on Thu, 29 Jul 1976 UTC launched from the Air Force Western Test Range (AFWTR). Debris objects in space refer to the collection of defunct objects orbiting the Earth. Examples of debris include non-operational satellites, rocket bodies, and fragments generated from explosions, collisions, or faulty payload assembly.

Loading next visibility...
Identifier
20349, 1976-077FR
Orbit
LEO
Country
Flag of USUS
Related business
Manufacturer
Unknown
Mission
Spacecraft
Bus & Motor
Unknown
Mass
Unknown
Launch date (UTC)
1976-07-29 (50 years ago)
Launch vehicle
Unknown
Launch site
Air Force Western Test Range (AFWTR)
Object type
Payload
Rocket body
Debris
Shape & HBR
Unknown shape, 0.1 m
Radar Cross Section
Small (<0.1 m²)

Expand to show TLE details & history
Last TLE update: 1 day ago

TLE from 1 day ago
0 DELTA 1 DEB
1 20349U 76077FR  26118.26267661  .00000666  00000-0  12290-1 0  9992
2 20349 102.5707 234.1737 0626661 254.9094 125.8503 11.33784470550124
Epoch: 2026-04-28T06:18Z
TLE epoch observation values (Epoch: 2026-04-28T06:18:15.259Z)
Latitude
25.66554°
Longitude
-82.75419°
Altitude
2,321.964 km
Speed
6.638 km/s
True Right ascension
15h 12m 11s
True Declination
25° 33' 20"
Sunlit
Object was in full shadow at epoch
Visualization orbit readout
Latitude
Unknown
Longitude
Unknown
Altitude
Unknown
Speed
Unknown
Apparent Right ascension
Unknown
Apparent Declination
Unknown
Sunlit
N/A
Visualization observer readout
Local Sidereal Time
13:56:42
Azimuth
Unknown
Elevation
Unknown
Doppler factor
Unknown
Orbital elements
Apogee altitude
2,513.754 km
Perigee altitude
1,465.033 km
Semi-major axis
8,367.53 km
Eccentricity
0.06267
Inclination
102.5707°
RAAN
234.1737°
Arg. of periapsis
254.9094°
True anomaly
131.40646°
Mean anomaly
125.8503°
Eccentric anomaly
128.65423°
Mean motion
2.83561 °/min
Orbital period
126.96 mins
BSTAR
0.01229
Loading maneuver chart data...
Computing Atmospheric mass density...
Loading historical data...
Loading historical data...
Loading historical data...
Loading historical data...
Loading historical data...
Loading historical data...
Loading historical data...

Documentation

Showing up to 5 results
|